Theta_e
276 275 275 274 274 274 273 273 272 272 272 272 271 272 272 272 271 271 271 271 272 272 272 272 272 272 272 272 272 272 272 271 271 271 271 271 272 272 272 272 273 273 274 274 275 276 277 279 280 281 283 286 290 292 294 294 295 295 296 296 298 298 299 299 300 300 300 301 302 305 312 319 320 320 320 320 320 323 325 324 323 324 323 323 323
275 274 274 274 274 273 273 272 272 272 271 271 271 271 271 271 271 271 271 271 271 271 271 271 271 271 271 271 271 270 270 270 270 270 271 271 271 272 272 273 273 274 274 274 275 276 277 279 281 283 285 287 290 292 293 294 294 295 295 296 298 298 299 299 300 300 301 302 303 305 311 318 319 318 319 318 318 320 322 322 322 323 322 321 321
274 274 274 274 273 273 272 272 271 271 271 271 271 271 271 270 270 270 271 271 271 271 271 270 270 270 270 270 270 269 270 270 270 270 270 271 271 271 272 273 273 274 274 274 275 275 277 279 281 283 286 289 291 292 293 293 294 294 294 295 297 298 299 299 300 301 302 302 303 305 311 317 318 317 318 318 319 319 319 319 320 321 321 320 320
274 274 273 273 273 272 272 271 270 270 270 270 270 270 270 270 270 270 270 270 270 270 269 269 269 269 269 269 269 269 269 269 269 269 270 270 271 271 271 272 272 273 274 275 275 276 277 279 281 282 284 288 291 292 293 293 293 293 293 294 296 297 298 299 300 301 302 303 304 306 311 316 317 317 317 317 317 318 318 318 318 319 319 319 320
273 273 272 272 272 272 271 270 270 270 270 269 269 269 269 269 269 269 269 268 268 269 268 268 269 269 269 269 268 268 268 269 269 269 269 270 270 271 271 271 272 272 273 274 275 276 277 279 280 281 283 287 291 292 292 292 292 292 292 293 294 296 298 299 300 301 302 304 305 307 312 316 316 316 317 317 316 316 317 317 317 318 317 318 318
273 272 272 272 271 271 270 270 269 269 269 269 269 269 269 269 268 268 267 267 267 268 268 268 268 268 268 268 268 268 268 268 268 269 269 270 270 270 271 271 272 272 272 273 274 275 276 276 278 280 282 285 289 292 291 291 292 291 292 293 294 295 297 299 300 301 302 304 305 307 311 315 315 314 316 317 315 315 315 316 316 317 317 317 317
272 272 272 271 270 270 269 269 268 268 268 268 268 268 267 267 267 266 266 266 266 267 267 267 267 267 267 267 267 268 268 268 268 269 269 270 270 271 271 271 272 272 272 273 273 274 274 275 276 279 280 282 286 290 291 291 291 291 292 292 293 294 296 298 300 301 302 303 305 308 311 313 313 313 315 316 315 314 314 314 313 315 316 316 316
272 271 271 270 269 269 268 268 268 268 268 268 267 267 266 266 265 265 265 265 266 266 266 266 266 267 267 267 267 267 268 268 269 269 269 270 270 271 271 271 272 272 272 272 273 274 274 275 276 278 279 281 285 289 290 291 291 291 291 291 291 292 293 295 298 300 301 302 305 308 310 311 312 313 313 314 314 314 314 314 312 313 315 315 315
271 270 269 268 268 268 267 267 267 267 267 266 266 266 265 265 265 265 265 265 265 265 266 266 266 267 267 267 267 268 268 269 269 270 270 271 271 271 272 272 272 272 273 273 274 274 275 275 276 278 279 281 283 286 289 290 290 290 290 290 290 291 291 292 295 298 300 302 305 308 311 311 311 311 311 312 313 313 314 314 313 313 314 314 314
270 269 268 268 267 267 266 266 266 266 266 266 265 265 264 264 264 264 264 265 265 265 266 266 267 267 267 268 268 268 269 269 269 270 272 273 273 273 273 273 273 273 274 275 275 276 276 276 277 278 280 282 284 286 288 289 290 290 290 290 290 290 291 291 293 295 298 302 305 308 310 312 311 310 311 312 313 313 313 312 312 312 312 312 313
269 268 267 267 266 266 266 266 266 266 266 265 265 264 264 264 264 264 264 265 265 266 266 267 267 267 268 268 268 269 269 269 270 272 273 274 275 275 275 275 275 275 275 275 276 276 277 278 279 279 281 283 285 287 288 289 290 290 290 290 290 290 290 291 292 294 296 300 305 308 309 311 311 310 312 312 312 313 312 311 311 310 311 311 311
269 267 267 266 266 265 265 265 265 266 266 265 264 264 263 263 264 264 264 265 265 266 266 267 267 267 267 267 267 268 269 270 271 272 274 275 276 276 277 277 277 276 276 276 276 276 277 278 280 281 281 282 284 286 288 288 289 289 289 289 290 290 290 290 291 292 294 297 303 307 308 310 311 311 311 311 311 312 312 311 311 311 310 311 311
267 266 266 266 265 264 264 264 265 265 265 264 264 263 263 263 263 264 264 265 266 266 266 266 266 266 266 266 267 267 268 269 271 272 274 275 276 277 277 278 277 277 277 276 276 277 277 278 279 281 281 282 283 285 287 288 288 289 289 289 290 290 290 290 291 292 293 295 300 305 308 309 310 310 311 311 311 311 311 311 311 311 310 310 310
266 266 265 265 264 264 264 264 265 264 264 263 263 263 263 263 263 264 265 265 265 266 265 265 265 265 266 266 266 267 267 269 271 273 274 276 277 278 279 278 278 278 277 277 277 277 278 278 279 281 282 282 283 284 286 287 288 289 289 289 290 290 290 291 292 293 294 295 297 302 308 309 310 311 311 312 312 311 310 310 311 311 310 310 311
266 265 265 264 264 264 264 264 264 264 263 263 262 262 263 263 263 264 264 265 265 265 265 265 265 265 265 266 266 267 268 269 271 273 275 276 277 279 279 279 278 278 278 277 277 277 278 278 280 281 282 282 282 283 285 287 288 289 289 289 289 290 290 290 292 294 296 297 297 301 307 309 310 311 311 312 312 311 311 311 311 310 309 309 309
265 265 264 265 265 265 265 264 263 263 262 262 262 262 262 263 263 264 264 264 264 264 264 264 264 265 265 266 267 267 268 270 271 273 275 276 278 279 280 279 279 278 278 278 278 278 278 279 280 281 282 283 283 283 284 286 288 289 289 289 289 290 290 290 292 294 297 299 299 301 306 309 310 311 311 312 312 311 310 309 309 308 308 308 307
265 265 265 266 266 266 265 263 262 262 262 262 262 262 262 262 263 263 264 264 264 264 264 264 264 265 266 266 267 268 269 270 272 273 275 277 278 279 280 280 279 278 278 278 278 278 278 279 280 281 282 282 283 284 285 286 287 288 289 289 289 290 290 290 292 295 297 300 301 302 306 309 310 311 312 312 311 310 309 307 307 308 309 307 306
264 265 266 267 267 267 265 263 262 261 261 262 262 262 262 262 263 263 263 263 263 264 264 264 265 265 266 267 268 269 270 270 272 273 275 276 278 278 279 280 279 279 278 278 278 278 278 279 280 281 282 282 283 284 285 286 287 288 289 289 290 290 290 290 292 295 298 301 302 303 306 308 310 310 310 310 310 310 310 308 308 309 308 307 306
264 265 267 268 268 267 265 263 262 261 261 262 261 261 262 262 262 263 263 263 263 263 264 264 265 266 267 268 268 269 270 270 272 274 275 276 277 278 279 280 280 279 279 279 278 278 279 279 280 281 282 283 283 284 284 285 286 288 289 290 290 290 290 291 291 294 298 301 302 303 305 308 309 309 309 309 309 310 311 310 309 309 308 306 306
265 266 268 269 269 268 265 263 262 262 262 262 262 262 262 262 262 262 262 263 263 264 264 265 266 267 268 268 269 270 270 271 272 273 274 275 276 277 278 279 280 280 279 279 279 279 279 280 280 281 282 283 283 284 285 285 286 288 289 290 290 290 290 291 291 293 297 302 303 304 305 307 308 308 308 308 308 310 310 310 310 310 308 306 305
266 267 269 269 269 268 266 263 262 262 262 261 261 261 262 262 262 262 262 263 263 264 265 266 266 267 268 269 269 270 271 272 272 272 273 274 276 277 278 278 279 280 280 280 279 279 280 281 281 282 282 283 284 284 285 286 286 288 289 290 290 290 290 291 291 292 296 301 303 304 304 305 306 306 307 307 308 309 309 309 310 310 309 307 306
267 268 269 269 269 268 266 264 263 262 262 261 261 261 261 261 262 262 262 263 264 265 265 266 267 268 268 269 269 270 271 271 271 272 273 274 275 276 277 278 279 280 281 281 280 280 281 282 282 283 283 284 284 285 286 287 287 288 289 290 291 291 291 291 290 291 295 300 302 302 302 303 304 305 305 306 307 308 308 308 310 310 309 308 308
267 268 269 269 269 268 267 266 264 262 261 261 261 261 261 261 261 262 263 263 264 265 266 267 268 268 269 269 269 271 271 271 271 271 272 273 275 276 277 278 279 280 280 281 281 281 281 282 282 283 283 284 285 285 286 287 288 289 290 291 291 291 291 291 291 291 295 299 300 300 301 302 303 304 305 305 306 307 308 308 309 310 309 309 309
267 268 268 268 268 268 268 267 264 262 261 261 261 261 261 261 261 262 263 264 265 266 267 268 268 268 269 269 270 271 270 270 270 271 272 273 275 276 277 277 278 279 280 280 281 282 282 282 283 283 284 284 285 286 286 287 289 290 290 291 291 291 291 291 291 292 296 299 300 300 301 302 303 303 304 305 306 307 308 308 308 309 308 307 308
267 268 268 267 266 267 268 268 265 262 261 260 260 260 261 261 261 262 263 265 265 266 267 268 269 269 269 269 270 270 270 270 270 271 272 273 274 275 276 277 277 278 279 279 280 282 283 284 284 284 284 285 286 287 287 287 288 289 290 291 291 291 292 292 292 293 296 299 300 300 301 302 303 304 304 305 306 306 306 306 306 306 307 306 306
267 268 267 266 265 265 266 267 265 263 261 260 260 260 260 260 261 262 264 265 265 266 268 269 269 269 269 269 270 270 270 270 270 271 272 273 274 274 275 276 276 277 278 279 280 281 283 284 285 285 285 286 286 287 288 288 288 289 290 291 292 291 291 292 292 294 297 299 300 301 302 302 303 304 304 304 304 304 304 304 304 305 306 305 305
267 267 266 265 264 263 263 263 262 262 262 260 259 260 261 261 261 262 264 264 265 267 269 269 269 269 269 269 270 270 270 270 270 271 272 273 273 274 274 275 276 277 278 279 280 281 282 284 286 287 287 287 287 288 288 289 289 290 291 291 291 291 291 292 292 294 298 300 300 301 302 302 302 302 303 303 303 303 304 304 303 303 304 304 302
266 266 265 264 263 263 261 260 259 260 261 260 260 259 259 261 262 263 263 264 266 268 269 269 269 269 269 269 270 270 270 270 270 271 272 273 273 274 274 274 275 276 277 278 280 281 282 284 286 288 288 288 288 289 289 289 290 290 291 291 291 291 291 292 293 295 298 300 300 301 301 301 301 302 302 302 302 302 302 304 303 302 302 302 300
266 265 264 263 263 262 260 259 258 258 259 260 261 262 261 261 262 263 264 265 266 268 269 269 269 269 269 269 269 270 270 270 271 271 272 272 273 273 273 274 275 276 277 278 280 282 283 284 287 289 289 289 289 289 290 290 290 290 291 291 291 291 291 292 293 295 298 300 300 300 300 300 301 301 301 301 301 301 301 303 303 301 302 302 300
265 264 263 263 263 262 260 259 258 258 258 258 260 263 264 264 263 262 263 265 266 267 268 268 268 269 269 269 269 270 270 270 270 271 271 271 272 272 272 273 274 275 275 278 282 285 285 285 287 289 289 290 290 290 290 290 291 291 291 291 290 291 292 293 294 296 298 300 300 299 299 300 300 300 300 301 300 300 301 302 302 301 301 302 301
265 264 263 262 262 260 259 258 258 258 258 258 257 259 262 265 265 264 263 263 265 266 267 267 267 268 269 269 269 269 269 269 269 270 270 270 270 270 270 271 273 273 273 276 282 285 285 286 289 290 290 290 290 290 290 290 290 290 291 291 291 292 292 294 295 297 298 299 299 299 299 300 300 300 300 301 300 300 300 301 301 301 301 302 301
265 263 263 262 261 259 258 258 257 257 257 258 257 257 257 259 263 264 264 263 263 264 265 265 266 267 267 268 269 269 268 268 269 269 269 269 269 269 268 269 271 271 270 272 275 276 278 281 285 288 290 291 291 290 290 290 291 291 291 292 292 293 293 294 296 298 299 299 299 299 299 299 300 300 300 300 300 299 299 300 300 300 301 302 301
264 263 263 262 261 259 257 257 257 257 257 257 257 257 257 256 257 260 262 262 262 263 264 263 264 265 266 267 268 268 268 268 268 268 268 268 267 266 266 266 268 269 268 267 268 270 271 274 276 278 281 285 288 291 291 291 291 291 292 292 293 293 294 295 296 298 299 299 299 299 299 299 299 299 300 300 299 299 299 299 300 300 301 301 301
264 263 263 262 260 258 257 257 257 257 257 257 256 256 257 257 256 256 257 259 260 261 262 262 262 263 264 265 266 267 267 266 267 266 266 266 266 264 263 264 265 266 266 265 266 267 269 271 272 272 273 275 279 284 288 292 293 292 292 293 293 294 295 296 297 298 298 299 299 299 299 299 299 299 299 299 299 299 299 299 299 300 300 301 300
264 263 262 261 260 258 258 258 257 257 257 257 256 256 256 256 257 256 256 256 257 258 259 260 260 261 262 263 265 266 265 265 265 265 265 265 264 262 261 261 262 263 263 264 265 265 267 269 270 270 271 272 273 275 279 285 290 293 293 293 294 295 295 296 296 297 298 298 299 299 298 299 299 299 299 299 299 299 299 299 300 299 300 301 300
263 263 262 261 260 258 258 258 257 257 257 256 256 256 256 256 256 256 256 256 256 257 257 257 258 260 260 261 263 264 263 263 263 263 263 263 262 260 259 259 259 260 262 264 264 265 266 268 268 269 270 270 271 272 273 276 282 289 294 294 294 295 296 296 296 297 298 298 298 298 298 298 298 299 299 298 298 299 299 299 299 299 300 300 300
263 263 262 261 260 259 259 258 258 257 257 257 256 256 256 256 256 256 256 256 256 256 256 257 257 258 259 260 262 262 261 261 262 262 261 261 260 258 257 258 258 259 261 264 264 264 265 267 268 268 269 269 270 271 271 272 274 280 289 294 295 294 295 296 296 297 297 298 298 298 298 298 298 298 299 298 298 298 298 299 299 299 299 300 299
263 263 262 261 260 260 259 259 259 258 258 257 257 256 256 256 255 255 255 255 255 256 256 256 256 257 257 259 261 261 259 259 260 260 259 259 258 258 257 257 258 258 261 264 265 265 265 267 267 267 268 269 269 270 271 271 272 274 281 290 295 295 295 296 296 296 297 297 298 297 298 298 298 298 298 298 298 298 298 298 298 298 298 299 299
263 263 263 261 260 260 260 260 259 259 259 258 257 256 256 255 255 255 255 255 255 255 255 255 256 256 256 259 262 261 258 257 257 257 257 257 257 257 257 257 257 258 260 263 265 265 265 267 267 267 268 268 269 269 270 270 271 271 275 284 292 295 295 295 295 296 296 297 297 297 297 298 298 298 298 298 298 298 298 298 298 298 298 298 299
263 263 263 262 261 260 260 260 260 259 258 258 257 256 255 255 254 254 254 254 254 255 255 255 255 255 256 259 262 260 257 256 256 256 255 256 256 257 257 257 257 258 260 263 265 265 266 266 267 267 268 268 268 269 269 270 270 271 272 276 284 291 294 295 295 295 295 296 297 297 297 297 297 298 298 298 298 298 298 297 298 298 298 298 299
262 262 262 262 261 260 260 260 259 259 258 257 256 256 255 255 254 254 254 254 254 254 254 254 255 255 256 259 261 260 257 255 255 255 255 256 256 257 257 258 258 259 260 263 264 265 266 266 267 267 268 268 268 269 269 269 270 270 270 272 276 281 287 291 293 295 295 296 296 297 297 297 297 297 297 298 298 298 298 297 297 297 298 298 298
262 262 262 261 260 260 260 260 259 259 258 257 257 256 255 255 254 254 254 254 254 254 254 254 255 256 256 258 259 258 256 256 256 256 256 256 256 257 258 259 259 259 260 262 264 265 266 266 267 267 267 268 268 268 269 269 269 270 270 270 271 274 277 281 285 290 293 295 296 296 297 297 297 297 297 297 297 297 297 297 297 297 297 297 297
262 261 261 261 261 260 260 260 259 259 258 258 257 256 256 255 255 254 254 254 253 253 253 253 254 255 255 256 257 256 256 256 256 256 256 256 257 257 258 259 260 260 260 262 264 265 266 266 267 267 267 268 268 268 268 269 269 269 269 270 270 271 272 275 278 283 287 291 294 296 296 296 297 297 297 297 297 297 297 297 296 297 297 297 297
261 261 261 261 260 260 260 260 260 259 259 258 258 257 256 256 256 255 254 254 253 253 253 253 253 254 254 255 255 255 255 255 256 256 256 257 257 258 259 260 261 261 261 262 264 265 265 266 267 267 267 268 268 268 268 269 269 269 269 269 269 270 271 272 274 277 281 286 291 294 295 295 296 296 297 297 297 297 296 296 296 296 296 296 296
261 261 261 261 260 260 260 260 259 259 259 259 258 258 257 257 256 256 255 254 253 253 253 253 253 253 253 254 254 254 254 255 256 257 257 257 258 259 260 261 261 261 261 262 264 264 265 266 267 267 267 268 268 268 268 269 269 269 269 269 269 269 270 271 273 276 279 283 288 292 294 295 295 295 296 296 296 296 296 296 296 296 296 296 296
260 260 260 260 260 260 260 259 259 259 259 259 259 258 258 257 257 256 255 254 254 253 253 253 253 253 253 253 253 253 254 254 255 257 258 259 259 260 261 261 262 261 261 262 263 264 265 266 266 267 267 267 268 268 268 269 269 269 269 269 269 269 269 271 274 276 280 283 287 291 293 294 294 295 295 295 295 296 296 296 296 296 296 296 296
260 260 260 260 260 260 259 259 259 259 259 259 258 258 258 257 257 257 256 255 255 254 254 254 254 253 253 253 253 253 254 254 255 256 258 259 260 261 262 262 262 262 262 262 263 264 264 265 266 267 267 267 268 268 268 268 269 269 269 269 269 269 269 271 273 276 279 283 287 290 292 293 293 293 294 294 294 295 295 295 295 295 295 295 295
259 260 260 260 260 260 259 259 259 259 258 258 258 258 257 257 257 257 257 256 256 255 255 255 255 254 254 254 254 253 254 255 256 257 258 259 260 261 262 262 262 262 262 262 263 263 264 265 265 266 267 268 268 268 268 268 269 269 269 269 269 268 269 271 272 274 278 282 285 288 291 292 293 293 293 293 293 293 293 293 293 293 294 294 294
259 259 259 259 259 259 259 259 259 259 258 258 258 258 257 257 257 257 256 256 256 256 256 256 256 255 255 255 255 254 254 255 256 257 258 259 260 261 262 262 263 263 263 263 263 263 264 264 265 266 267 267 268 268 268 268 268 269 269 269 269 268 269 270 271 273 276 279 282 284 286 288 289 290 291 292 293 293 293 293 293 293 293 293 293
259 259 259 259 259 259 259 259 259 258 258 258 258 258 257 257 257 257 256 256 256 256 256 256 256 256 256 255 255 255 255 255 256 257 258 259 260 261 262 262 263 263 263 263 263 263 264 264 265 265 267 267 268 268 268 268 268 268 269 269 269 268 268 269 270 271 273 275 277 279 281 282 284 285 286 288 291 292 292 292 292 292 292 293 292
259 259 259 259 259 259 259 258 258 258 258 258 258 257 257 257 257 256 256 256 256 256 256 256 256 256 256 256 256 256 256 256 256 257 258 259 260 261 261 262 262 263 263 264 263 263 263 264 264 265 266 267 268 268 267 267 268 268 268 269 269 268 268 268 269 269 271 272 273 275 276 277 278 279 280 281 284 287 289 291 292 292 292 292 292
Wind_Speed
11 13 14 16 18 19 21 22 23 25 26 26 28 31 32 33 34 35 36 36 35 36 37 37 37 37 38 38 36 37 39 38 36 34 34 34 33 32 31 31 32 33 33 34 34 34 34 34 34 36 36 35 35 32 30 30 28 27 28 28 29 30 27 18 10 14 27 31 30 36 34 35 40 41 44 42 49 58 56 54 57 61 63 65 70
11 13 14 16 18 20 21 23 23 24 25 27 29 30 31 32 33 33 34 34 34 35 35 36 36 36 37 39 37 36 37 36 34 32 32 32 32 31 30 30 31 32 32 33 33 32 32 32 32 34 35 35 36 32 29 28 26 25 26 26 28 29 29 23 14 10 17 27 28 33 36 35 38 39 44 44 46 50 47 51 61 64 63 64 69
11 12 14 16 18 20 22 22 23 24 25 27 28 29 30 31 30 30 31 33 33 34 34 35 36 36 36 37 37 35 35 34 33 32 32 33 33 32 31 30 31 31 31 32 33 32 31 30 29 30 31 34 35 32 28 27 25 24 25 27 27 28 30 28 21 13 11 20 26 29 32 34 37 39 44 48 50 46 39 46 60 62 62 64 66
11 13 15 17 19 20 21 22 22 23 25 26 27 28 29 29 28 29 31 33 33 33 33 33 34 35 35 35 35 34 34 34 34 34 33 33 33 33 32 32 31 31 31 31 29 29 29 28 27 27 29 32 31 29 26 25 24 24 24 26 27 28 30 30 27 22 15 14 23 29 33 33 35 40 45 46 46 46 43 45 52 55 58 63 64
11 13 15 18 19 20 21 21 23 25 25 25 26 28 28 27 28 30 31 31 32 33 33 33 32 33 33 33 34 35 35 35 36 35 34 33 33 33 33 33 33 32 32 32 30 28 26 24 24 24 27 31 28 26 24 23 23 23 23 24 25 26 28 29 29 29 22 14 18 29 35 33 31 36 46 46 39 40 46 48 49 49 49 53 59
12 14 16 18 19 20 21 23 25 26 25 26 28 29 30 28 28 29 29 31 33 33 34 33 31 32 33 33 35 36 36 36 36 35 34 34 33 33 33 33 33 32 31 32 32 31 29 28 27 25 26 29 27 23 23 24 23 23 23 24 23 23 25 27 27 27 25 21 20 26 30 30 28 30 41 48 42 36 37 39 45 52 48 44 49
12 14 16 17 19 21 23 24 25 25 25 27 29 30 32 31 29 29 30 31 32 33 34 34 33 34 35 35 35 36 36 36 35 34 34 34 33 33 33 32 32 32 31 30 30 31 33 34 32 30 28 30 29 25 23 24 23 23 23 22 22 21 22 23 23 22 22 20 21 24 24 24 28 31 37 48 49 44 41 31 27 40 47 43 44
12 14 16 17 19 22 23 23 24 23 24 27 29 30 33 33 32 30 29 30 31 31 33 35 37 37 35 34 34 35 36 35 34 33 33 33 32 32 32 31 30 30 30 30 30 30 31 33 34 33 32 32 31 28 25 24 23 23 23 22 21 20 20 20 20 20 18 15 18 23 21 19 24 30 33 37 35 35 43 40 27 32 43 44 46
12 14 15 17 19 21 22 22 21 23 25 28 31 32 33 34 34 32 30 30 31 34 36 35 36 37 35 33 33 34 34 33 31 31 31 31 31 30 31 30 28 28 29 29 30 30 30 30 31 33 34 33 33 32 29 27 25 24 24 23 21 20 19 19 18 17 15 12 15 19 17 15 16 20 21 24 27 31 40 43 35 37 43 41 43
12 13 14 17 19 19 20 20 21 24 26 29 31 32 33 35 34 34 35 35 34 37 39 35 31 32 33 32 32 32 32 31 31 32 32 32 31 29 28 27 26 26 27 28 28 28 28 28 29 31 32 33 35 36 33 32 31 28 27 26 24 22 19 18 17 16 13 10 11 13 12 12 16 20 19 25 37 43 41 36 32 35 36 31 31
10 12 14 16 17 18 19 20 22 25 27 28 30 31 32 33 33 34 36 37 37 36 34 30 28 30 31 31 32 32 32 32 32 34 35 34 32 30 28 25 24 24 26 27 28 27 26 26 26 28 30 30 32 33 31 31 31 30 30 29 28 26 23 20 19 17 13 12 11 13 11 12 20 29 28 28 33 40 40 36 33 31 27 18 15
10 12 14 15 16 16 17 19 22 25 27 28 30 31 32 32 33 35 36 36 36 33 29 29 30 31 31 32 32 33 34 34 35 36 37 36 35 33 29 24 20 21 23 25 27 27 27 26 25 25 26 27 28 28 27 28 29 29 31 31 29 29 28 27 26 22 17 14 11 13 14 16 23 30 31 29 30 35 39 38 36 33 27 18 14
9 11 13 14 15 16 17 20 23 25 27 28 29 30 31 32 32 34 35 34 32 30 30 31 31 30 31 33 33 35 36 37 37 37 37 37 35 33 30 25 20 19 22 25 26 26 26 27 26 25 25 26 26 26 26 26 28 29 30 31 31 31 31 32 32 31 27 22 17 15 23 27 26 30 37 38 36 35 33 33 36 37 32 27 27
9 11 12 13 14 16 18 21 24 25 27 28 29 30 31 32 32 31 31 30 29 30 30 31 32 31 32 33 34 36 38 39 39 39 38 37 36 34 32 28 23 20 22 25 26 27 27 26 27 25 23 24 25 25 26 26 26 27 27 28 29 30 30 31 31 33 34 31 28 24 30 38 37 40 46 48 46 42 39 38 40 40 37 34 35
8 10 12 14 15 18 20 22 24 26 27 28 29 30 30 31 31 29 28 27 28 29 30 32 34 35 35 36 36 36 39 40 40 40 39 37 36 36 34 30 23 20 21 22 24 27 28 27 28 27 24 25 26 25 26 26 25 25 26 26 28 29 30 31 30 31 32 33 35 33 31 41 47 48 50 52 54 52 50 50 49 45 40 32 31
8 10 12 14 17 20 22 23 24 25 28 28 29 30 31 30 29 28 28 28 28 29 31 32 35 37 38 37 36 39 43 43 40 40 39 36 35 34 32 29 25 22 22 23 23 25 27 27 28 27 25 26 27 26 27 27 26 25 25 26 28 29 30 32 31 30 32 34 36 37 35 43 49 52 56 56 52 48 43 39 41 43 36 25 22
8 11 14 16 18 20 22 23 24 25 27 28 29 30 30 29 29 29 30 30 30 31 33 34 34 36 37 38 37 41 45 44 41 39 37 36 35 34 31 27 26 24 22 23 24 25 26 28 27 27 27 26 25 24 25 27 27 26 25 25 26 27 29 32 31 29 33 35 36 38 38 44 48 51 59 56 50 50 43 30 33 39 29 16 13
8 11 14 16 18 20 21 22 23 24 25 27 28 30 29 29 29 29 29 30 32 33 33 34 35 34 36 38 37 38 42 45 41 36 35 36 36 34 31 27 26 24 19 20 24 25 26 28 28 29 30 29 27 26 26 27 27 26 25 24 23 23 26 28 28 27 30 32 33 36 38 45 47 46 52 52 51 58 53 39 40 40 24 14 14
8 11 13 16 17 19 20 21 22 23 25 26 27 28 29 29 30 29 29 29 32 33 32 34 35 34 36 38 37 37 42 44 37 33 35 38 36 33 31 27 24 23 17 16 21 24 25 27 28 28 29 28 27 27 28 29 28 26 26 23 19 20 23 24 24 26 27 28 31 32 35 44 46 41 44 47 51 61 61 55 53 45 28 21 22
7 10 13 14 16 18 18 20 21 22 24 26 27 27 27 28 30 30 30 29 30 31 32 32 34 35 36 37 36 37 40 37 33 34 37 38 36 33 31 27 25 24 19 15 17 22 24 25 26 28 28 28 28 28 29 30 30 29 27 22 18 19 22 23 25 28 27 27 28 27 31 39 43 41 42 43 47 55 58 58 58 52 41 32 29
7 10 12 13 15 17 18 19 21 22 23 25 27 28 27 27 29 30 31 30 29 31 32 32 33 35 35 33 35 37 33 30 33 37 37 35 35 34 30 27 26 26 22 18 17 20 23 23 23 25 25 26 28 29 30 31 31 31 29 25 23 23 22 24 28 31 28 24 26 25 28 34 38 40 41 41 45 46 47 52 56 56 52 45 38
8 10 11 13 14 16 18 19 21 22 23 24 26 28 27 25 27 28 28 28 28 29 32 33 33 34 32 31 34 33 28 28 34 36 34 34 36 36 33 30 29 28 23 17 18 21 24 23 23 24 25 25 26 27 28 29 30 32 30 27 26 25 24 26 28 29 25 21 24 22 25 30 33 36 38 40 43 41 40 47 52 51 53 57 56
8 10 11 13 14 15 18 19 20 21 23 24 25 28 27 26 26 26 26 27 26 27 32 34 32 31 31 33 33 30 27 32 34 32 33 36 37 36 34 33 32 30 25 18 17 22 25 25 26 27 27 26 26 27 28 28 29 31 29 26 25 25 26 26 26 25 21 18 21 20 23 27 30 33 36 38 41 41 42 47 49 47 48 55 61
8 9 11 12 14 15 17 19 21 21 22 23 24 26 26 26 26 25 25 25 24 28 34 34 28 27 29 32 33 31 31 34 32 31 34 37 37 36 35 35 34 31 27 24 20 21 25 28 30 29 28 27 27 26 27 28 27 26 25 23 22 23 24 24 23 22 17 16 18 18 22 27 30 34 38 42 45 44 44 45 44 42 40 42 44
8 9 11 12 14 15 16 18 20 22 22 22 23 24 26 26 25 24 24 23 25 31 34 30 26 26 27 28 31 35 36 34 32 33 36 36 35 36 35 35 35 32 28 26 25 24 26 30 32 31 30 29 28 26 26 27 27 25 23 22 22 23 24 23 21 19 15 16 16 18 25 31 35 39 42 44 43 40 37 35 33 31 30 31 32
8 9 11 12 14 15 16 18 20 22 22 21 21 22 24 25 24 24 22 22 26 32 32 28 25 25 25 26 30 34 35 35 34 34 36 36 36 37 36 35 33 31 28 26 26 27 27 29 32 33 32 30 28 26 24 24 25 25 24 24 23 24 25 22 19 17 15 18 19 23 29 33 34 36 38 39 37 34 34 34 32 28 29 30 28
8 9 10 12 14 15 17 18 20 23 24 23 21 20 22 24 23 23 23 25 28 31 30 29 30 28 25 26 30 32 33 33 33 35 36 36 36 36 35 35 33 31 27 25 24 24 24 25 27 31 32 30 29 27 25 24 23 23 23 24 24 26 26 24 21 20 19 23 24 24 28 30 30 31 34 36 35 34 37 38 34 30 31 33 28
8 9 10 12 13 14 15 16 18 21 24 25 24 21 21 22 22 22 23 26 29 29 28 30 34 35 31 28 28 30 30 28 31 36 40 40 38 36 35 34 33 31 29 28 27 26 24 24 24 24 26 25 25 24 23 23 22 21 22 23 24 25 25 24 23 22 22 24 23 21 23 27 29 31 33 34 33 34 36 38 36 33 33 32 25
8 9 10 11 12 14 15 15 16 17 20 23 25 23 20 19 20 22 23 24 25 27 27 28 32 34 32 28 27 27 27 30 37 42 42 41 39 38 37 35 33 34 35 34 31 27 22 19 18 17 18 18 18 17 17 18 19 19 20 22 22 23 22 21 20 22 23 21 19 20 23 26 28 30 31 30 30 33 35 36 35 33 33 31 25
8 9 10 11 12 13 14 16 16 16 17 18 22 24 23 20 18 19 22 23 23 23 24 26 29 31 31 31 30 29 31 36 42 44 43 41 40 38 37 36 34 36 40 35 26 20 16 13 12 11 12 13 12 11 12 13 13 15 18 20 21 21 20 20 20 21 23 23 23 25 26 26 26 28 29 28 28 32 35 36 35 33 31 28 23
8 9 10 10 11 12 13 15 16 16 16 16 16 19 23 25 23 21 21 23 24 24 24 26 29 30 31 32 33 34 37 40 42 43 43 43 42 40 38 37 34 36 40 32 15 9 8 7 8 9 10 10 9 9 11 12 12 13 14 16 19 20 19 20 21 22 23 24 25 26 27 26 27 27 28 28 29 30 32 33 34 33 32 28 24
8 8 9 9 10 10 12 13 14 16 17 17 16 16 18 21 24 27 28 27 24 23 24 27 30 31 32 33 34 37 40 41 42 43 43 43 43 42 40 36 34 38 44 39 24 15 14 10 6 4 5 8 10 12 13 13 13 14 14 13 15 18 20 21 23 25 25 24 24 25 25 26 28 28 29 29 28 28 28 28 29 30 30 28 27
7 8 8 8 9 10 11 13 13 14 15 16 17 18 17 16 19 24 30 32 30 27 27 28 30 31 32 33 34 38 41 42 43 44 43 44 45 43 38 35 35 40 44 36 22 18 18 16 12 12 11 8 7 10 14 15 14 15 15 14 14 16 20 22 24 25 26 25 24 24 25 28 29 28 28 29 28 27 27 27 27 28 26 23 23
7 7 7 7 7 9 11 12 12 12 14 15 16 18 18 18 18 20 23 28 31 32 34 35 33 31 32 33 36 39 41 41 42 43 43 44 44 44 43 45 46 48 44 33 22 18 19 17 16 16 17 16 15 12 10 13 16 17 16 16 16 17 18 21 23 24 24 25 24 23 24 26 28 28 26 27 27 27 27 27 26 25 23 21 21
7 7 6 6 6 7 9 10 10 11 13 14 16 16 17 18 19 19 19 20 22 24 30 36 36 33 33 34 36 38 40 40 41 43 43 43 45 50 53 49 43 40 39 33 26 22 20 18 18 18 18 17 18 18 17 14 13 16 17 16 16 17 18 20 22 24 24 23 24 24 25 26 28 30 28 26 25 24 24 26 27 26 25 24 22
7 6 6 6 6 7 7 8 8 9 11 13 14 15 16 17 19 20 20 20 20 21 25 31 34 34 34 34 36 38 40 39 39 41 43 44 46 51 50 36 25 27 31 31 30 28 23 19 19 20 20 19 19 19 19 20 19 15 16 18 16 16 18 21 22 24 25 24 24 25 27 26 28 30 29 27 27 27 26 28 28 28 28 27 24
7 6 5 6 5 6 6 6 7 8 10 12 14 16 17 18 19 20 20 20 21 22 24 28 31 32 35 37 39 40 42 44 45 48 52 51 50 53 53 41 30 29 30 29 32 33 28 23 24 24 23 22 23 24 22 22 25 23 15 17 19 18 18 22 23 24 24 24 24 26 27 27 28 30 29 26 26 27 27 29 28 27 30 31 27
7 5 5 5 4 4 5 6 8 9 11 13 15 17 18 18 19 20 20 20 21 21 24 26 27 28 31 35 38 40 44 48 50 52 54 53 50 53 58 56 48 41 33 28 31 34 29 27 28 28 26 26 26 26 27 26 27 28 22 13 18 21 20 21 24 25 24 23 23 26 28 27 28 30 30 28 26 26 26 28 28 26 27 29 27
7 6 5 4 3 3 4 6 8 10 12 13 15 16 17 19 20 20 20 21 21 21 23 24 24 26 29 32 35 38 40 43 45 46 50 53 54 56 59 60 58 51 38 30 31 32 29 28 30 29 29 29 28 27 29 30 29 29 27 16 9 18 20 19 19 21 22 22 23 25 27 27 28 30 30 28 28 28 27 28 29 27 26 26 27
7 6 5 5 3 2 3 6 8 10 11 12 14 15 16 17 18 18 19 19 20 21 22 22 24 27 30 30 32 33 33 35 40 45 48 51 56 59 59 59 59 51 39 31 32 33 30 30 31 30 30 31 30 28 29 30 30 31 30 24 12 4 14 19 21 21 21 21 23 25 27 27 28 29 29 28 29 31 30 29 29 30 29 29 29
8 7 5 5 3 2 4 6 8 9 10 10 12 13 14 15 16 16 17 18 19 20 21 22 24 27 29 28 29 30 28 30 38 45 46 48 53 57 58 59 57 48 37 32 33 34 32 32 32 32 31 32 32 31 30 29 30 31 31 28 24 15 4 6 13 19 22 23 23 25 27 29 29 28 28 28 29 31 31 30 30 30 29 29 29
8 6 6 5 4 3 5 7 8 8 9 10 11 12 13 14 15 16 16 17 18 19 21 23 25 28 29 28 29 31 30 32 38 44 48 50 53 54 55 57 55 46 36 33 33 34 33 33 33 33 33 34 34 33 32 31 30 30 30 30 28 24 19 12 5 5 13 19 23 25 27 28 29 29 29 29 29 28 28 28 29 29 28 28 29
8 6 6 5 4 4 6 7 8 8 9 10 11 12 12 13 14 15 16 17 18 18 20 22 25 27 29 30 31 32 32 33 37 42 46 49 51 52 54 56 54 46 38 35 36 35 34 33 34 34 34 34 34 33 33 32 30 29 29 29 28 27 24 20 16 9 1 9 17 23 26 28 29 28 28 27 28 28 27 27 28 27 27 28 28
8 7 6 5 5 5 6 6 7 8 9 9 10 11 13 14 15 16 17 17 18 18 19 21 23 25 27 30 31 32 32 32 34 39 44 48 50 51 52 53 52 47 41 38 38 38 36 34 35 36 36 36 36 35 34 33 32 30 29 28 28 29 28 24 20 16 9 2 9 16 22 26 27 28 27 27 27 27 26 26 27 27 27 27 27
8 7 6 6 5 5 6 6 7 7 8 9 10 11 13 14 15 17 17 17 18 19 20 21 22 23 25 27 28 30 31 31 32 36 41 45 47 48 50 51 51 48 43 39 38 39 37 35 36 38 39 39 39 37 36 36 34 33 32 31 30 29 28 24 20 16 10 4 3 11 18 22 23 24 26 28 29 28 27 27 28 27 26 26 26
9 8 7 6 6 6 5 5 6 6 7 9 10 11 12 14 15 16 17 17 18 19 20 22 22 23 24 25 27 28 29 30 31 34 38 42 45 46 47 48 49 48 44 39 38 39 39 37 37 39 41 41 41 40 39 38 37 37 36 35 34 32 29 24 20 16 11 6 1 8 16 19 19 20 21 23 26 26 26 26 27 27 27 27 27
9 8 7 6 6 5 5 5 5 6 7 9 10 11 12 13 14 15 16 17 18 19 20 21 22 23 23 24 25 27 28 29 30 32 35 39 42 44 45 46 48 48 45 41 39 39 40 39 39 40 41 43 43 42 41 41 41 41 40 39 39 38 33 27 23 20 14 9 6 7 14 18 18 18 19 19 20 20 21 21 22 24 25 26 25
9 8 6 6 5 5 4 4 5 5 7 8 9 10 11 12 13 15 16 17 18 20 21 22 22 23 24 24 25 26 27 28 30 31 33 36 39 42 43 44 45 46 45 42 40 40 40 40 40 40 42 44 44 44 44 44 44 44 43 43 43 42 38 33 29 25 20 15 12 9 11 15 17 19 20 21 21 20 19 19 20 21 21 21 22
8 7 6 5 5 4 3 3 4 5 6 7 9 9 11 12 13 14 15 16 17 18 20 21 22 23 24 24 25 26 27 28 30 31 32 34 36 39 41 42 43 44 45 43 41 40 41 41 41 40 40 43 45 45 46 46 47 47 46 46 45 45 43 41 36 31 27 23 19 16 14 13 13 14 16 19 21 22 21 20 21 21 21 19 20
9 7 5 5 4 3 2 3 3 4 5 6 8 9 10 11 12 13 14 15 16 17 19 20 21 22 23 24 25 26 27 28 28 29 30 32 34 36 38 40 41 43 43 42 41 40 41 42 42 40 39 41 44 46 46 47 49 49 48 47 48 48 47 46 42 38 35 31 28 25 22 20 17 15 11 11 14 18 20 21 22 22 22 21 21
9 7 5 5 3 2 1 1 2 3 4 6 7 8 9 10 11 12 13 14 15 16 17 18 19 20 21 22 24 25 25 26 27 27 29 30 32 34 36 38 40 41 42 41 41 40 40 41 42 42 39 39 41 45 47 47 48 50 50 50 50 50 49 48 47 44 40 38 35 33 31 29 27 24 20 15 11 10 13 16 19 21 22 22 22
Wind_Direction
296 297 307 316 318 319 318 316 315 315 315 314 311 311 310 308 306 305 304 304 304 305 304 303 304 302 302 299 296 298 297 294 294 290 286 284 281 278 279 275 272 271 269 266 263 260 260 259 259 260 260 262 260 250 239 238 240 243 247 246 244 240 235 237 240 253 265 260 259 275 258 204 187 191 188 186 188 189 190 188 183 179 176 172 171
292 301 314 320 320 321 318 316 317 316 315 314 312 311 310 309 308 307 305 305 305 305 303 303 304 301 299 297 295 296 296 292 291 289 285 283 281 280 280 276 273 270 267 266 264 262 261 259 258 259 259 259 257 250 240 237 240 244 249 248 246 243 233 233 243 243 262 263 258 269 257 210 182 185 185 181 183 184 183 181 177 175 173 169 167
298 312 321 323 323 321 319 319 320 317 315 313 312 312 311 311 310 307 306 307 306 305 303 302 303 300 297 296 294 294 294 290 287 286 284 283 280 280 280 278 276 272 268 265 262 260 258 257 259 261 263 260 253 246 239 238 241 243 249 252 249 248 238 232 239 241 250 261 258 263 253 215 184 179 181 179 180 180 177 174 172 171 170 167 165
311 322 325 325 323 320 321 321 319 318 316 313 312 313 314 313 312 309 307 308 308 306 305 303 302 299 295 295 294 292 291 289 286 283 282 282 280 279 278 277 276 275 273 268 264 259 253 253 257 260 265 264 252 240 236 236 240 244 250 255 254 253 246 237 238 243 245 257 258 256 245 217 187 176 176 176 176 173 170 170 168 167 167 166 165
321 327 327 324 322 321 321 321 322 324 321 316 315 317 316 313 312 313 311 308 309 310 308 304 302 299 294 293 294 292 290 288 285 283 281 279 279 278 276 274 273 273 273 272 270 267 260 258 261 261 266 268 254 237 234 235 239 247 250 254 257 257 252 242 237 241 243 245 256 252 236 211 186 176 173 170 169 167 165 166 165 163 164 164 164
325 327 327 325 325 325 324 325 329 328 322 319 319 320 320 316 312 314 313 311 311 311 309 305 300 297 295 293 292 292 289 285 283 282 281 279 277 275 274 272 271 271 271 270 267 266 266 267 267 263 263 268 261 241 233 236 240 245 250 254 259 262 261 250 237 238 242 242 247 246 228 201 178 174 174 168 163 160 159 161 161 159 158 159 159
323 326 329 330 330 330 329 331 331 327 321 321 321 321 323 322 317 315 315 314 313 310 309 306 300 298 297 294 292 290 288 284 282 280 279 277 275 273 271 271 271 271 270 268 266 264 264 262 261 261 260 264 266 253 240 239 240 244 250 256 261 266 269 262 250 242 244 245 244 236 220 192 171 170 175 169 161 156 155 154 154 152 152 156 157
325 330 333 330 328 329 331 331 328 323 319 320 321 323 325 326 323 319 316 314 312 309 306 303 302 300 298 294 290 287 286 284 280 278 276 274 272 271 269 268 269 271 270 268 265 262 260 257 255 256 257 257 261 260 249 242 241 246 252 256 263 268 271 273 266 253 247 250 245 227 202 178 168 167 170 168 159 157 157 155 151 150 151 157 160
332 334 331 326 325 327 328 327 323 320 320 324 327 328 328 328 326 322 318 313 310 310 307 303 299 298 297 295 291 287 286 284 280 278 276 274 272 270 267 264 262 267 271 268 262 255 254 256 254 253 254 254 257 259 256 250 246 247 252 257 263 267 270 273 269 261 255 249 242 225 193 167 166 161 164 168 159 156 158 155 152 153 152 155 160
334 331 325 323 325 327 325 322 322 323 326 329 330 331 330 330 327 324 322 318 314 313 311 305 298 297 297 298 296 291 287 283 280 280 279 277 276 272 269 264 259 262 271 273 268 257 251 253 254 254 254 254 255 256 255 252 250 250 254 259 262 264 267 267 263 261 260 248 232 219 189 167 166 161 167 173 160 153 154 153 148 149 149 148 153
333 325 321 322 324 325 322 320 324 328 331 333 333 332 331 330 327 325 323 321 318 315 310 304 303 303 302 301 300 297 293 288 285 285 284 282 281 277 273 268 261 260 265 271 273 270 265 260 258 257 255 253 256 258 254 252 251 253 257 260 261 262 261 262 261 258 260 258 232 208 187 163 166 167 168 170 160 150 150 150 146 146 148 148 147
330 321 321 323 322 321 319 323 329 334 336 336 334 334 332 330 328 326 324 323 320 315 310 307 307 306 304 302 301 299 297 295 294 291 288 287 285 282 277 272 266 261 261 265 269 270 271 270 267 262 258 256 258 259 256 256 256 258 261 261 262 262 262 262 259 253 256 265 245 209 188 166 166 170 166 164 160 153 150 151 151 151 153 157 154
326 319 321 322 319 321 324 331 337 339 339 338 335 335 333 331 330 328 325 323 318 314 311 310 309 309 307 305 302 300 298 298 299 297 293 290 288 285 279 272 266 261 260 264 267 267 267 268 268 266 261 259 259 260 260 259 258 259 261 261 262 264 267 267 261 252 251 259 262 225 188 170 166 169 167 165 162 157 155 154 156 157 158 163 166
322 319 322 323 323 329 335 340 343 341 340 339 336 335 334 331 330 328 323 320 317 315 313 311 310 311 310 306 304 301 298 298 301 301 299 295 292 291 286 276 266 260 258 257 262 266 265 264 265 265 261 259 259 260 260 259 257 258 258 260 263 266 271 272 265 256 248 251 262 244 195 174 170 169 169 169 166 162 161 161 162 164 164 166 167
322 321 322 327 333 339 344 346 345 343 342 340 337 335 334 331 329 327 322 318 315 314 313 312 311 311 311 309 307 303 300 301 303 304 303 300 297 296 291 280 267 263 261 254 254 261 263 262 263 262 258 258 259 259 257 255 255 255 255 259 264 267 271 273 268 260 250 246 255 250 210 179 173 170 169 171 171 168 166 165 163 160 154 149 152
322 324 329 337 342 347 350 348 346 344 342 340 337 335 333 330 327 324 320 315 314 313 313 311 311 311 312 312 310 306 306 307 307 307 306 305 304 304 297 282 266 262 264 262 259 259 259 260 262 261 258 256 254 252 252 253 254 255 256 259 264 267 271 274 272 264 255 251 255 250 219 185 174 172 170 172 172 165 157 151 150 147 142 138 144
325 333 340 347 350 352 353 349 346 344 342 338 335 333 330 327 325 323 320 316 315 315 314 313 313 313 313 315 314 310 309 311 311 310 309 310 312 313 307 288 269 261 261 262 263 262 258 257 258 261 262 260 257 252 249 249 252 254 255 258 263 267 270 277 280 270 258 255 256 250 223 190 177 175 172 170 168 160 149 142 148 150 147 146 150
332 343 348 353 355 355 354 351 347 343 340 337 333 330 327 324 323 322 319 315 315 316 315 314 314 315 315 316 315 310 309 312 312 310 312 315 316 316 312 297 273 260 256 256 259 260 257 256 255 256 257 257 258 257 253 252 251 251 252 254 260 265 270 279 285 279 268 257 249 243 219 188 177 177 172 168 166 163 159 160 162 158 154 157 158
340 351 355 357 358 357 355 353 349 343 340 337 332 328 326 323 323 322 319 317 315 316 317 316 315 317 319 318 316 312 311 311 311 313 316 317 317 316 315 307 282 262 252 252 258 259 256 254 253 254 255 255 256 256 255 254 253 251 250 251 255 262 270 281 288 286 272 249 235 233 212 184 175 176 173 168 168 169 169 167 165 163 162 162 159
352 359 3 3 0 359 358 355 351 347 342 338 332 328 325 324 324 323 322 320 318 317 319 318 316 319 322 320 319 317 314 311 313 318 318 317 318 319 319 315 299 277 259 247 254 261 259 253 250 251 255 257 258 259 256 252 251 250 249 247 250 261 274 283 288 288 272 236 218 219 204 182 172 174 175 172 171 173 173 170 168 167 165 159 160
6 9 9 8 3 1 1 357 354 351 346 339 332 328 327 326 326 325 324 323 322 321 322 322 321 321 323 323 322 320 317 316 318 319 318 317 320 321 319 316 310 296 276 251 244 256 260 256 252 250 252 255 257 259 257 252 249 248 246 246 250 260 275 280 282 288 276 230 202 198 191 176 169 171 174 174 176 178 175 172 172 172 168 163 166
19 18 14 11 5 3 3 360 358 354 348 341 333 328 329 330 328 328 327 325 324 324 326 327 326 324 325 327 325 321 320 324 323 319 319 320 321 321 319 314 314 311 296 262 240 247 255 257 256 253 253 255 256 258 258 253 247 245 244 247 251 258 269 274 277 285 274 222 186 179 178 170 166 170 173 175 179 179 176 175 176 176 174 172 174
28 24 19 15 8 6 4 1 360 355 348 342 334 329 331 332 332 334 332 328 327 329 330 332 331 329 329 330 329 327 326 327 324 320 321 323 322 321 320 316 315 315 307 287 257 246 248 253 256 256 255 256 255 255 257 254 246 242 240 244 251 258 266 268 270 276 263 209 174 170 173 169 166 169 174 177 179 179 178 179 180 180 179 180 180
35 28 25 20 12 9 6 2 360 355 348 342 335 331 333 335 336 338 336 332 331 331 332 336 337 334 331 330 331 333 331 327 324 322 322 323 324 324 323 320 317 312 307 301 285 261 251 251 252 251 252 254 254 252 253 251 247 242 240 243 250 256 260 261 264 265 246 198 174 170 171 170 170 173 177 180 180 181 182 182 182 182 182 183 183
41 35 30 24 17 12 7 3 359 353 347 343 337 334 335 336 338 339 338 337 335 332 333 339 342 338 332 328 329 333 333 330 326 324 324 326 328 327 324 321 318 313 306 299 290 278 267 258 252 248 247 249 251 250 248 247 245 244 241 242 246 249 252 254 259 257 231 192 179 176 174 176 178 178 179 179 177 177 177 176 178 180 179 179 180
46 42 34 27 23 16 10 5 359 351 347 344 340 338 339 339 338 338 338 337 334 332 335 341 343 338 333 329 329 333 335 333 329 326 328 331 331 329 328 324 321 316 308 296 287 282 278 269 257 248 244 245 247 246 243 241 240 240 239 238 240 244 248 250 250 244 218 192 186 184 181 179 178 176 174 173 170 170 170 169 169 171 172 171 167
51 46 39 31 26 21 14 5 353 348 346 343 340 341 345 345 341 338 338 336 332 334 340 344 342 339 335 331 332 334 335 335 332 331 333 335 333 332 331 328 325 322 316 305 294 285 281 280 268 249 240 241 242 241 240 237 234 232 231 233 237 242 246 248 245 238 218 198 192 190 180 171 166 165 167 168 169 171 172 170 167 165 166 164 155
57 50 43 34 28 23 15 1 348 343 345 344 341 340 344 347 344 340 339 337 334 337 343 343 341 341 339 334 333 335 336 337 336 336 338 338 336 334 333 330 328 325 320 312 302 289 280 283 277 252 236 236 237 234 233 232 229 227 226 229 236 243 248 250 246 238 224 206 195 184 168 158 156 161 166 170 172 172 171 171 170 166 162 159 153
65 57 48 37 30 22 10 358 347 341 343 347 349 350 351 348 341 339 344 344 341 341 345 345 343 343 342 338 337 338 339 339 340 341 341 340 338 337 336 333 330 327 323 315 302 287 274 274 272 250 229 228 231 229 227 226 225 225 226 230 236 241 243 243 238 230 220 205 186 169 161 158 160 164 168 170 172 171 170 171 170 167 163 163 162
72 63 53 40 31 20 4 353 346 343 342 344 348 356 4 5 356 345 343 345 347 348 349 348 348 348 347 346 346 346 343 340 341 344 344 343 344 344 341 339 337 337 335 326 301 270 253 252 256 242 223 224 228 223 220 223 225 226 228 230 232 234 235 233 228 222 211 197 181 173 169 166 164 166 170 171 170 171 173 172 170 168 168 168 166
77 66 57 45 33 18 359 348 344 345 346 344 343 348 357 5 10 5 353 348 350 353 353 353 353 353 353 352 351 352 350 347 347 349 350 350 350 349 348 348 348 350 355 356 339 286 269 263 245 224 213 218 226 225 224 227 229 230 232 230 226 225 226 225 221 214 204 194 187 181 176 171 168 170 173 172 170 171 173 173 171 172 174 173 168
83 71 61 49 35 16 355 346 344 345 345 347 349 348 346 350 359 5 6 3 357 354 354 356 356 357 357 356 355 357 356 353 353 354 355 356 356 354 354 356 357 3 13 21 18 359 348 339 312 274 237 222 218 220 224 229 232 231 231 229 224 220 217 217 214 207 200 195 190 185 179 174 172 173 174 172 170 169 171 172 174 176 178 176 170
88 79 67 51 34 13 354 346 346 346 344 345 349 352 351 345 343 349 356 2 4 4 4 2 360 358 357 357 359 1 360 358 358 358 359 1 1 358 356 1 9 16 21 22 13 357 355 353 348 347 340 315 271 237 223 221 227 231 230 228 226 222 217 214 211 205 200 195 191 186 182 178 174 173 174 173 171 169 171 175 177 178 178 176 171
97 85 70 55 35 11 355 347 345 346 349 351 351 352 353 353 347 342 343 350 357 1 3 4 3 0 357 358 1 3 2 1 0 1 3 4 3 2 5 11 17 19 19 16 6 355 353 352 350 349 345 339 331 316 275 237 226 225 229 231 228 223 217 210 206 205 202 197 190 187 184 179 174 171 172 173 173 173 174 176 177 177 178 176 171
105 93 79 64 40 11 354 348 347 349 352 355 357 356 355 355 355 353 348 344 344 345 349 355 359 0 359 1 1 1 1 2 2 4 6 7 6 9 14 16 13 9 8 7 4 356 349 348 349 346 341 339 337 333 324 302 262 232 224 225 224 218 210 203 201 202 200 195 191 188 184 180 177 174 172 173 174 175 177 178 178 179 180 176 170
113 105 94 75 44 12 352 348 355 358 357 358 0 1 1 1 359 357 354 350 345 340 341 347 353 357 1 4 3 360 0 2 4 6 9 9 10 13 14 10 358 353 356 360 359 353 348 347 347 343 340 338 337 335 331 325 312 279 239 221 217 212 204 198 198 199 196 194 192 188 184 183 181 177 173 173 177 179 181 181 181 181 180 175 168
116 115 98 71 39 8 353 358 8 11 8 9 9 8 8 7 4 1 358 353 348 345 345 347 352 356 360 3 3 360 360 4 9 12 13 13 13 13 12 7 359 353 353 356 357 353 350 350 351 347 343 340 340 339 336 331 330 321 285 232 214 209 204 198 196 195 194 193 191 187 184 185 184 180 176 176 179 181 181 181 180 181 180 175 168
121 118 99 71 33 1 357 9 20 23 21 19 17 14 12 9 5 3 1 356 351 348 348 351 355 356 355 357 358 359 2 8 12 12 11 11 11 10 8 8 5 359 354 356 357 355 353 355 355 352 349 346 343 343 343 340 338 336 324 273 222 209 205 200 197 195 194 193 190 187 186 186 185 183 181 178 179 181 181 181 180 178 177 176 172
126 119 110 95 52 7 9 22 27 27 27 23 20 17 15 10 5 2 359 355 353 352 350 352 356 356 353 354 357 360 4 7 7 5 5 6 8 8 7 6 4 359 355 355 358 357 357 357 356 354 354 353 350 348 349 347 344 343 343 331 250 212 203 198 196 194 194 193 191 188 187 186 185 185 185 182 181 181 180 182 182 178 176 179 180
131 123 116 111 99 44 33 40 38 33 29 25 21 19 16 10 4 1 358 355 353 352 351 351 353 354 356 357 359 2 4 3 2 3 3 2 5 7 8 6 3 359 354 353 357 358 357 356 356 357 357 356 355 354 352 351 350 350 354 359 355 248 205 199 196 192 190 191 191 189 188 187 185 185 186 186 185 183 182 183 184 182 181 182 182
134 128 121 114 107 85 59 52 47 41 34 29 24 21 16 11 6 3 2 359 355 352 351 352 353 356 359 359 360 4 7 5 3 5 5 4 5 7 8 6 4 1 357 356 357 357 357 358 359 359 359 359 359 358 356 355 355 353 356 3 11 15 16 201 200 196 193 192 191 190 190 188 184 184 186 187 186 186 185 184 184 184 184 183 180
136 133 128 123 113 88 68 57 52 48 39 33 31 26 18 13 12 9 6 3 359 355 353 353 355 360 3 2 2 6 10 8 7 7 7 7 6 7 8 8 7 4 359 358 358 358 358 360 1 1 2 2 1 0 359 358 356 354 356 1 8 15 18 18 14 199 196 195 193 193 192 190 187 187 187 186 184 184 184 184 184 184 184 183 181
143 142 136 128 110 86 70 58 52 49 42 35 33 29 23 19 17 14 11 8 4 0 358 356 356 359 3 5 7 9 10 8 8 8 8 7 7 8 8 9 9 7 4 3 3 2 1 3 4 5 6 6 5 4 3 0 358 357 357 359 3 8 11 13 14 12 308 204 198 196 193 192 191 190 188 185 182 181 182 183 183 183 182 182 182
148 147 140 129 108 86 73 62 53 49 45 40 36 31 27 24 21 18 15 11 7 5 3 1 359 359 1 5 8 9 8 7 7 7 8 8 8 9 10 11 12 11 8 7 6 5 4 5 6 8 9 10 9 8 7 6 4 3 2 1 1 3 5 7 7 3 355 281 208 200 195 192 192 190 187 185 184 182 181 181 182 182 182 181 181
154 149 140 128 111 92 77 65 57 51 47 44 41 35 30 27 23 21 17 12 8 6 6 6 5 3 2 4 6 6 6 5 6 8 9 9 9 10 11 13 14 13 10 8 7 7 6 6 8 10 11 11 10 10 10 10 10 10 10 8 5 2 2 4 6 5 3 352 220 200 195 194 193 191 189 187 186 185 183 183 183 182 181 181 183
159 152 142 130 113 98 85 71 59 50 46 45 42 36 32 28 25 22 18 14 11 8 7 8 9 7 5 5 5 5 6 6 5 7 10 11 12 13 14 15 16 15 13 11 9 8 8 8 10 12 13 12 11 11 12 12 13 14 14 14 12 9 8 11 15 18 20 23 78 183 187 189 189 190 191 190 189 189 188 186 185 185 184 184 186
161 152 142 131 115 100 87 75 62 51 47 45 41 37 32 29 26 23 20 17 14 11 10 10 10 8 7 7 5 6 7 7 6 7 9 12 14 15 16 17 18 17 15 14 12 11 10 11 12 14 15 14 12 13 13 14 15 16 16 16 16 16 18 22 25 28 35 49 80 151 174 178 177 180 183 183 184 186 186 185 186 187 187 188 189
160 152 141 127 115 104 89 74 60 49 46 45 42 37 33 29 26 24 21 18 16 14 12 11 10 9 8 7 6 7 8 9 10 11 11 13 15 17 17 18 19 18 18 17 15 12 11 11 13 15 17 16 14 14 14 15 16 17 17 17 17 21 27 33 33 34 42 58 76 109 146 162 167 171 174 175 176 177 177 178 181 184 185 187 188
158 153 143 127 116 104 87 71 53 43 42 42 39 37 33 29 26 23 20 18 18 16 14 12 11 10 9 7 7 8 10 11 12 13 13 13 15 18 19 19 20 21 21 19 16 13 12 13 14 16 18 18 17 16 16 16 16 17 18 18 18 23 32 38 39 41 47 56 68 81 96 114 133 149 161 170 175 176 174 174 176 178 179 181 182
162 155 143 134 126 107 86 70 44 34 35 34 33 34 30 26 24 22 19 17 17 17 16 14 12 11 10 8 7 7 9 10 10 12 13 14 16 18 19 21 21 22 23 22 18 15 14 14 15 16 18 19 19 18 18 18 18 18 19 20 20 25 32 38 41 45 48 52 58 66 72 78 86 93 107 136 160 170 174 175 175 175 177 178 178
164 159 151 145 137 116 94 69 36 27 27 26 28 28 25 21 21 20 17 15 15 15 15 14 13 12 11 10 8 8 8 9 10 12 14 16 17 18 20 21 20 21 23 23 21 17 16 16 16 16 18 20 21 20 20 20 19 19 21 24 25 27 31 35 40 45 48 51 55 59 62 64 66 65 64 70 90 123 151 165 171 174 176 178 178